[[{"header":{"parameterUnit":"m.s-1","parameterCategory":1,"la1":30.2991,"la2":30.254,"lo1":-89.0895,"lo2":-89.0444,"dx":0.0017,"dy":0.0017,"nx":28,"ny":28,"refTime":"2022-11-26T09:00:00:Z","depth":0,"parameterNumber":2,"parameterNumberName":"U-component_of_WINDS"},"data":[0,0,0,0,0,0,0,0,0,0,0,0,0,0,0,0,0,0,0,0,0,0,0,0,0,0,0,0,0,0,0,0,0,0,0,0,0,0,0,0,0,0,0,0,0,0,0,0,0,0,0,0,0,0,0,0,0,0,-5.3805,-5.3806,0,-5.3858,-5.3859,-5.386,-5.3781,-5.3778,-5.3775,-5.3773,-5.3827,-5.3831,-5.3835,0,0,0,0,0,0,0,0,0,0,0,0,0,-5.3635,-5.3639,-5.3805,-5.3806,-5.3806,-5.3858,-5.3859,-5.386,-5.3781,-5.3778,-5.3775,-5.3772,-5.3826,-5.383,-5.3835,0,0,0,0,0,0,0,0,0,0,0,0,0,-5.3701,-5.364,-5.3805,-5.3773,-5.3771,-5.3858,-5.3859,-5.386,-5.3782,-5.3778,-5.3774,-5.377,-5.3824,-5.383,-5.3836,-5.3956,0,0,-5.3854,-5.3857,0,0,0,0,0,0,0,0,-5.3697,-5.3707,-5.3777,-5.3776,-5.3773,-5.3809,-5.3819,-5.3892,-5.3783,-5.3778,-5.3773,-5.3768,-5.3824,-5.383,-5.3849,-5.3958,-5.3961,-5.3855,-5.3858,-5.3861,-5.3863,0,0,0,0,0,0,0,-5.3693,-5.3705,-5.3826,-5.3778,-5.3776,-5.3757,-5.3762,-5.3833,-5.3824,-5.3778,-5.3772,-5.378,-5.3822,-5.3843,-5.385,-5.3961,-5.3855,-5.386,-5.3864,-5.3866,-5.4173,-5.4178,0,0,0,0,0,0,-5.3692,-5.3701,-5.3824,-5.3828,-5.3724,-5.3763,-5.3769,-5.3802,-5.3823,-5.3822,-5.3783,-5.3776,-5.3835,-5.3843,-5.3851,-5.3993,-5.3861,-5.3867,-5.387,-5.4169,-5.4174,-5.4179,0,0,0,0,0,0,-5.3689,-5.3704,-5.3822,-5.3763,-5.3777,-5.3771,-5.3808,-5.3805,-5.3826,-5.3827,-5.3825,-5.3807,-5.3832,-5.3843,-5.3931,-5.3994,-5.3869,-5.3875,-5.4163,-5.4171,-5.4177,-5.4278,0,0,0,0,0,0,-5.3684,-5.3703,-5.3748,-5.3765,-5.378,-5.3901,-5.3812,-5.3809,-5.3836,-5.3827,-5.3848,-5.3847,-5.383,-5.3922,-5.3937,-5.4,-5.3879,-5.4158,-5.4167,-5.4175,-5.4269,-5.4287,-5.4303,0,0,0,0,0,-5.3679,-5.3774,-5.3751,-5.3766,-5.3836,-5.3904,-5.3913,-5.3891,-5.3842,-5.3887,-5.3888,-5.3847,-5.3986,-5.3932,-5.3948,-5.4013,-5.4154,-5.4164,-5.4174,-5.4261,-5.4284,-5.4303,0,0,0,0,0,0,-5.3764,-5.3775,-5.375,-5.3854,-5.3879,-5.3891,-5.3947,-5.3916,-5.3955,-5.3945,-5.3916,-5.3921,-5.4015,-5.4024,-5.3964,-5.4132,-5.4061,-5.4075,-5.4122,-5.4144,-5.416,-5.4155,-5.3884,0,0,0,0,0,-5.3795,-5.385,-5.3857,-5.3948,-5.3962,-5.3953,-5.3982,-5.3963,-5.3988,-5.3998,-5.4005,-5.403,-5.408,-5.4112,-5.4158,-5.4271,-5.4274,-5.4324,-5.4342,-5.4356,-5.4367,-5.4428,-5.445,-5.4213,-5.4213,-5.4213,0,0,-5.386,-5.3873,-5.3908,-5.3965,-5.3982,-5.4039,-5.3962,-5.4025,-5.4067,-5.4007,-5.409,-5.4097,-5.4124,-5.4225,-5.427,-5.4235,-5.4434,-5.4369,-5.438,-5.4384,-5.4441,-5.4463,-5.4483,-5.422,-5.4219,-5.4218,0,0,-5.4005,-5.4021,-5.4099,-5.4118,-5.4146,-5.414,-5.4159,-5.4177,-5.4179,-5.4263,-5.4219,-5.4269,-5.4355,-5.4376,-5.4398,-5.4556,-5.4519,-5.4572,-5.466,-5.472,-5.4738,-5.4755,-5.481,-5.4831,-5.4584,-5.4584,-5.4584,0,-5.4081,-5.4165,-5.4143,-5.4209,-5.4236,-5.4186,-5.4264,-5.4285,-5.4326,-5.4345,-5.4306,-5.4413,-5.4428,-5.4533,-5.4572,-5.4592,-5.4613,-5.4567,-5.4738,-5.4754,-5.4769,-5.4821,-5.4842,-5.459,-5.4589,-5.4589,-5.4588,0,-5.4257,-5.4317,-5.4376,-5.4418,-5.4452,-5.4524,-5.4513,-5.455,-5.453,-5.4528,-5.4615,-5.4631,-5.4679,-5.4703,-5.4684,-5.4807,-5.4784,-5.4742,-5.467,-5.4798,-5.4847,-5.4867,-5.4599,-5.4597,-5.4595,-5.4593,0,0,-5.4454,-5.4485,-5.4507,-5.4526,-5.4555,-5.46,-5.4672,-5.472,-5.4752,-5.4783,-5.4842,-5.4917,-5.4879,-5.4904,-5.4887,-5.494,-5.5063,-5.4891,-5.4891,-5.4921,-5.52,-5.523,-5.5253,-5.5041,-5.5044,-5.5047,-5.5197,0,-5.4599,-5.4721,-5.4705,-5.4822,-5.4877,-5.4833,-5.4895,-5.4919,-5.4921,-5.4968,-5.497,-5.5023,-5.4969,-5.4984,-5.5035,-5.5038,-5.5118,-5.5027,-5.5094,-5.5096,-5.5086,-5.5279,-5.531,-5.545,-5.5216,-5.5219,-5.5222,0,-5.4783,-5.4822,-5.4945,-5.4967,-5.4989,-5.5045,-5.5089,-5.5135,-5.5162,-5.516,-5.519,-5.5164,-5.5236,-5.5166,-5.5265,-5.5203,-5.523,-5.5236,-5.5241,-5.5244,-5.5165,-5.5285,-5.5495,-5.5515,-5.5252,-5.5249,-5.5247,0,-5.4912,-5.4996,-5.5081,-5.5099,-5.5127,-5.5167,-5.5181,-5.5205,-5.5235,-5.5274,-5.5294,-5.534,-5.5365,-5.5402,-5.539,-5.534,-5.5492,-5.542,-5.5491,-5.5491,-5.5522,-5.5519,-5.5736,-5.5544,-5.5543,-5.5543,-5.5543,0,-5.5074,-5.5151,-5.514,-5.5192,-5.5277,-5.5259,-5.5344,-5.5352,-5.5374,-5.5427,-5.5393,-5.5443,-5.5425,-5.5475,-5.5467,-5.5549,-5.5561,-5.5561,-5.5557,-5.5563,-5.5563,-5.5578,-5.5567,-5.5549,-5.5547,-5.5546,-5.5545,0,-5.5231,-5.5227,-5.5317,-5.5337,-5.5344,-5.5406,-5.5423,-5.5473,-5.5473,-5.5541,-5.5556,-5.5556,-5.5613,-5.5606,-5.567,-5.5664,-5.5767,-5.5752,-5.5757,-5.5753,-5.5823,-5.5816,-5.6055,-5.6085,-5.5876,-5.5878,-5.588,0,-5.5333,-5.5391,-5.5419,-5.5452,-5.5469,-5.5523,-5.5555,-5.554,-5.5574,-5.5612,-5.5657,-5.5712,-5.5754,-5.5848,-5.5853,-5.5902,-5.5888,-5.5969,-5.5894,-5.5898,-5.5887,-5.5882,-5.5888,-5.5982,-5.5984,-5.5986,-5.5988,0,-5.5514,-5.551,-5.5557,-5.5604,-5.5643,-5.568,-5.5712,-5.5742,-5.573,-5.5771,-5.583,-5.5863,-5.5929,-5.5983,-5.603,-5.6044,-5.6014,-5.6012,-5.603,-5.6035,-5.6034,-5.6034,-5.5794,-5.6005,-5.6003,-5.6002,-5.6001,-5.6001,-5.5645,-5.5695,-5.5723,-5.5777,-5.5801,-5.5833,-5.5881,-5.5888,-5.5937,-5.5989,-5.5979,-5.6045,-5.6073,-5.6133,-5.6152,-5.6204,-5.6174,-5.6202,-5.6208,-5.6214,-5.6222,-5.6029,-5.6213,-5.6212,-5.6212,-5.6211,-5.6211,0,-5.5822,-5.5839,-5.5889,-5.5937,-5.598,-5.5951,-5.5987,-5.6024,-5.6083,-5.6112,-5.6156,-5.6224,-5.6277,-5.6289,-5.634,-5.6379,-5.6367,-5.6393,-5.6389,-5.6392,-5.6246,-5.6224,-5.6402,-5.6402,-5.6402,-5.6402,-5.6402,-5.6402,-5.5919,-5.6003,-5.6003,-5.6098,-5.6114,-5.6179,-5.6202,-5.6232,-5.6255,-5.6333,-5.6378,-5.6386,-5.6408,-5.6462,-5.651,-5.6512,-5.6531,-5.6563,-5.6559,-5.6422,-5.6403,-5.6384,-5.6363,-5.6568,-5.6568,-5.67,-5.6702,-5.6703]},{"header":{"parameterUnit":"m.s-1","parameterCategory":1,"la1":30.2991,"la2":30.254,"lo1":-89.0895,"lo2":-89.0444,"dx":0.0017,"dy":0.0017,"nx":28,"ny":28,"refTime":"2022-11-26T09:00:00:Z","depth":0,"parameterNumber":3,"parameterNumberName":"V-component_of_WINDS"},"data":[0,0,0,0,0,0,0,0,0,0,0,0,0,0,0,0,0,0,0,0,0,0,0,0,0,0,0,0,0,0,0,0,0,0,0,0,0,0,0,0,0,0,0,0,0,0,0,0,0,0,0,0,0,0,0,0,0,0,1.1323,1.1323,0,1.1373,1.1374,1.1374,1.1399,1.1399,1.1399,1.1399,1.1451,1.1452,1.1453,0,0,0,0,0,0,0,0,0,0,0,0,0,1.1249,1.125,1.1322,1.1323,1.1324,1.1373,1.1374,1.1374,1.1399,1.1399,1.1399,1.1399,1.145,1.1452,1.1454,0,0,0,0,0,0,0,0,0,0,0,0,0,1.1289,1.1251,1.1322,1.1342,1.1344,1.1373,1.1374,1.1375,1.1399,1.1399,1.1399,1.1399,1.145,1.1452,1.1454,1.1466,0,0,1.146,1.1461,0,0,0,0,0,0,0,0,1.1286,1.1291,1.1339,1.1341,1.1343,1.138,1.1367,1.1405,1.1399,1.1379,1.1399,1.1399,1.1427,1.1431,1.1441,1.1469,1.1471,1.146,1.1461,1.1462,1.1463,0,0,0,0,0,0,0,1.1284,1.1289,1.1343,1.1339,1.1342,1.1349,1.1355,1.1374,1.1402,1.138,1.1382,1.1388,1.1429,1.1439,1.1442,1.1472,1.146,1.1462,1.1463,1.1464,1.1516,1.1516,0,0,0,0,0,0,1.1278,1.1287,1.1341,1.1344,1.1314,1.135,1.1357,1.1368,1.1402,1.1407,1.1388,1.1389,1.1435,1.144,1.1444,1.1463,1.1462,1.1464,1.1465,1.1516,1.1516,1.1516,0,0,0,0,0,0,1.1276,1.1282,1.1339,1.1316,1.1324,1.1352,1.1364,1.1369,1.1379,1.1408,1.1413,1.1393,1.1435,1.1441,1.1461,1.1465,1.1465,1.1467,1.1516,1.1516,1.1516,1.15,0,0,0,0,0,0,1.1274,1.1281,1.1286,1.1316,1.1325,1.1355,1.1365,1.137,1.1383,1.1385,1.1414,1.1419,1.1436,1.1458,1.1463,1.1468,1.1469,1.1516,1.1516,1.1516,1.15,1.1499,1.1499,0,0,0,0,0,1.1271,1.1278,1.1286,1.1292,1.1331,1.1355,1.136,1.138,1.1383,1.1388,1.1407,1.1418,1.1464,1.146,1.1466,1.1471,1.1516,1.1516,1.1516,1.15,1.15,1.1499,0,0,0,0,0,0,1.1246,1.1282,1.1291,1.1308,1.1329,1.1359,1.1366,1.1378,1.1397,1.1398,1.1421,1.1428,1.1447,1.1461,1.1456,1.1487,1.1491,1.1492,1.1477,1.1476,1.1476,1.1472,1.147,0,0,0,0,0,1.1243,1.126,1.129,1.1302,1.1312,1.1337,1.1349,1.1362,1.1384,1.1393,1.1413,1.1434,1.1453,1.1465,1.1485,1.1503,1.1511,1.1509,1.1509,1.1508,1.1509,1.1523,1.1523,1.1518,1.1518,1.1518,0,0,1.1236,1.1258,1.1267,1.1298,1.1315,1.1333,1.1344,1.1361,1.1375,1.1395,1.1416,1.1432,1.1457,1.1477,1.1487,1.149,1.1513,1.1508,1.1508,1.1509,1.1523,1.1524,1.1524,1.1518,1.1518,1.1518,0,0,1.1233,1.125,1.1264,1.1282,1.1308,1.1325,1.1329,1.1358,1.137,1.1392,1.1408,1.1425,1.1457,1.1475,1.1489,1.1496,1.1508,1.1502,1.1498,1.1511,1.1512,1.1512,1.1517,1.1518,1.1503,1.1503,1.1503,0,1.1221,1.1247,1.1269,1.1286,1.1301,1.1321,1.1336,1.1352,1.1383,1.1393,1.1396,1.1439,1.1457,1.1483,1.1485,1.1495,1.1501,1.1498,1.151,1.1511,1.1511,1.1516,1.1517,1.1502,1.1502,1.1502,1.1502,0,1.1233,1.1251,1.1259,1.129,1.1305,1.1321,1.1346,1.1359,1.1372,1.139,1.1413,1.1436,1.1462,1.1469,1.1481,1.1497,1.1499,1.1505,1.151,1.1511,1.1516,1.1517,1.1501,1.1501,1.1501,1.1502,0,0,1.1213,1.1259,1.1261,1.1277,1.1309,1.1324,1.1342,1.1368,1.138,1.1401,1.1418,1.1447,1.1454,1.147,1.1484,1.1495,1.1503,1.1501,1.1502,1.1502,1.1525,1.1521,1.1522,1.1511,1.1511,1.1511,1.1524,0,1.1216,1.1248,1.127,1.1295,1.1313,1.1335,1.1351,1.1373,1.139,1.1409,1.1429,1.1449,1.1456,1.1466,1.1478,1.1499,1.1508,1.1499,1.1528,1.1528,1.1521,1.1524,1.1519,1.1529,1.1525,1.1526,1.1526,0,1.1222,1.1245,1.1271,1.1305,1.1314,1.1327,1.1355,1.1372,1.1399,1.1411,1.143,1.1446,1.1467,1.147,1.1501,1.1494,1.1508,1.152,1.1521,1.1525,1.1527,1.153,1.1533,1.1535,1.1529,1.1528,1.1528,0,1.1207,1.1245,1.1266,1.1279,1.1318,1.1328,1.1344,1.1371,1.1386,1.141,1.1421,1.1447,1.1461,1.1481,1.1504,1.1504,1.1534,1.1538,1.1546,1.1545,1.1551,1.1551,1.1558,1.1558,1.1558,1.1558,1.1558,0,1.1208,1.1224,1.1261,1.1274,1.1294,1.1319,1.1338,1.1356,1.1381,1.1399,1.1419,1.1436,1.1465,1.1486,1.1504,1.1528,1.1534,1.1546,1.155,1.1544,1.1543,1.1554,1.1554,1.1558,1.1558,1.1558,1.1558,0,1.1194,1.122,1.1245,1.1281,1.1291,1.1304,1.1335,1.1349,1.1369,1.1392,1.1399,1.143,1.1456,1.1482,1.1516,1.1528,1.1553,1.1559,1.1544,1.1547,1.1554,1.1554,1.1569,1.1573,1.1569,1.1569,1.1569,0,1.1193,1.1207,1.1245,1.1259,1.1276,1.1298,1.1314,1.1341,1.1357,1.1391,1.1402,1.143,1.1453,1.1494,1.152,1.1548,1.1555,1.1559,1.1559,1.1554,1.1557,1.1556,1.1559,1.1558,1.1558,1.1558,1.1558,0,1.119,1.1202,1.1225,1.1254,1.1273,1.1297,1.1321,1.1331,1.1363,1.138,1.1408,1.1427,1.1463,1.1492,1.1523,1.1541,1.1555,1.1558,1.1561,1.1555,1.1547,1.1554,1.1544,1.1557,1.1557,1.1557,1.1557,1.1557,1.1183,1.1197,1.1227,1.1253,1.1275,1.1298,1.1314,1.1337,1.136,1.1393,1.1407,1.1436,1.1465,1.1509,1.1527,1.1551,1.1554,1.1558,1.156,1.1561,1.1561,1.1543,1.1556,1.1556,1.1556,1.1556,1.1556,0,1.1182,1.1203,1.1227,1.1261,1.1282,1.1295,1.1323,1.134,1.1365,1.1391,1.1415,1.1449,1.1477,1.1506,1.1536,1.155,1.1557,1.1557,1.1557,1.1561,1.1555,1.155,1.1551,1.1551,1.1551,1.1551,1.1551,1.1551,1.1184,1.1209,1.1226,1.1263,1.1284,1.1313,1.1328,1.135,1.1372,1.1408,1.1432,1.1452,1.148,1.1513,1.1541,1.1549,1.156,1.1558,1.1568,1.1561,1.1561,1.1561,1.1557,1.1559,1.1559,1.1572,1.1573,1.1573]}]]